Location: Madrid
(40.4000°N, 3.6830°W)
Time: 22:53:34
(UTC+02:00)

ISS - Pass Details

Date: 26 July 2017
Orbit: 400 x 408 km, 51.6° (Epoch: 24 July)

Event Time Altitude Azimuth Distance (km) Brightness Sun altitude
Rises 00:47:40 0° 290° (WNW) 2,309 0.6 -26.3°
Reaches altitude 10° 00:50:38 10° 320° (NW) 1,452 -0.1 -26.5°
Maximum altitude 00:52:15 13° 350° (N) 1,285 -0.4 -26.7°
Drops below altitude 10° 00:53:52 10° 20° (NNE) 1,453 -0.5 -26.8°
Enters shadow 00:56:44 - 49° (NE) 2,279 0.2 -27.0°
